When you browse on this site, cookies collect data to enhance your experience and personalize the content and advertising you see.
Visit our Privacy Policy to learn more. By continuing to use the site, you agree to this use of cookies and data.
  • Em Portugal
  • Lista de países
  • Para 7 dias
  • Temperatura da água
  • Mapas de satélite
  • Mapa do tempo
  • Widgets de tempo
  • user-avatar
    Iniciar Sessão

    Previsão horária em Selyanka

    Hoje, 23 Julho, Terça-feira

    Tempo Temperatura Precipitação Vento Pressão Humidade
    00:00 +13°C° 0 mm 0 m/s 733 mmHg 94%
    01:00 +12°C° 0 mm 0 m/s 733 mmHg 95%
    02:00 +12°C° 0 mm 0 m/s 733 mmHg 95%
    03:00 +12°C° 0 mm 0 m/s 733 mmHg 95%
    04:00 +11°C° 0 mm 0 m/s 733 mmHg 95%
    05:00 +13°C° 0 mm 0 m/s 733 mmHg 93%
    06:00 +14°C° 0 mm 0 m/s 733 mmHg 90%
    07:00 +16°C° 0 mm 0 m/s 733 mmHg 87%
    08:00 +17°C° 0.1 mm 0 m/s 733 mmHg 81%
    09:00 +19°C° 0.1 mm 0 m/s 734 mmHg 75%
    10:00 +21°C° 0.1 mm 0 m/s 734 mmHg 69%
    11:00 +23°C° 0.5 mm 1 m/s 734 mmHg 69%
    12:00 +23°C° 0.5 mm 1 m/s 734 mmHg 70%
    13:00 +23°C° 0.5 mm 1 m/s 734 mmHg 71%
    14:00 +23°C° 0.5 mm 2 m/s 734 mmHg 74%
    15:00 +23°C° 0.5 mm 2 m/s 734 mmHg 77%
    16:00 +21°C° 0.5 mm 2 m/s 735 mmHg 80%
    17:00 +21°C° 0.4 mm 2 m/s 735 mmHg 84%
    18:00 +21°C° 0.4 mm 1 m/s 735 mmHg 88%
    19:00 +20°C° 0.4 mm 1 m/s 735 mmHg 91%
    20:00 +19°C° 0.1 mm 1 m/s 735 mmHg 93%
    21:00 +18°C° 0.1 mm 1 m/s 735 mmHg 95%
    22:00 +16°C° 0.1 mm 1 m/s 735 mmHg 97%
    23:00 +16°C° 0.1 mm 1 m/s 735 mmHg 96%

    Amanhã, 24 Julho, Quarta-feira

    Tempo Temperatura Precipitação Vento Pressão Humidade
    00:00 +15°C° 0.1 mm 1 m/s 735 mmHg 96%
    01:00 +15°C° 0.1 mm 1 m/s 736 mmHg 96%
    02:00 +15°C° 0 mm 1 m/s 736 mmHg 96%
    03:00 +14°C° 0 mm 1 m/s 736 mmHg 97%
    04:00 +14°C° 0 mm 1 m/s 737 mmHg 97%
    05:00 +15°C° 0 mm 1 m/s 737 mmHg 95%
    06:00 +16°C° 0 mm 1 m/s 737 mmHg 93%
    07:00 +18°C° 0 mm 1 m/s 737 mmHg 91%
    08:00 +21°C° 0 mm 1 m/s 738 mmHg 78%
    09:00 +23°C° 0 mm 1 m/s 738 mmHg 64%
    10:00 +25°C° 0 mm 1 m/s 738 mmHg 50%
    11:00 +26°C° 0 mm 1 m/s 738 mmHg 46%
    12:00 +27°C° 0 mm 1 m/s 739 mmHg 41%
    13:00 +28°C° 0 mm 1 m/s 739 mmHg 37%
    14:00 +28°C° 0 mm 2 m/s 739 mmHg 38%
    15:00 +27°C° 0 mm 2 m/s 739 mmHg 40%
    16:00 +27°C° 0 mm 2 m/s 739 mmHg 41%
    17:00 +26°C° 0 mm 1 m/s 739 mmHg 50%
    18:00 +24°C° 0 mm 1 m/s 739 mmHg 58%
    19:00 +23°C° 0 mm 1 m/s 739 mmHg 66%
    20:00 +22°C° 0 mm 1 m/s 739 mmHg 67%
    21:00 +21°C° 0 mm 1 m/s 740 mmHg 67%
    22:00 +18°C° 0 mm 0 m/s 740 mmHg 68%
    23:00 +18°C° 0 mm 0 m/s 740 mmHg 69%

    Depois de amanhã, 25 Julho, Quinta-feira

    Tempo Temperatura Precipitação Vento Pressão Humidade
    00:00 +17°C° 0 mm 0 m/s 740 mmHg 71%
    01:00 +17°C° 0 mm 0 m/s 741 mmHg 73%
    02:00 +17°C° 0 mm 0 m/s 741 mmHg 72%
    03:00 +16°C° 0 mm 0 m/s 741 mmHg 72%
    04:00 +16°C° 0 mm 0 m/s 741 mmHg 72%
    05:00 +17°C° 0 mm 0 m/s 741 mmHg 72%
    06:00 +18°C° 0 mm 0 m/s 741 mmHg 71%
    07:00 +19°C° 0 mm 0 m/s 742 mmHg 71%
    08:00 +21°C° 0 mm 0 m/s 742 mmHg 65%
    09:00 +23°C° 0 mm 0 m/s 742 mmHg 58%
    10:00 +25°C° 0 mm 0 m/s 742 mmHg 52%
    11:00 +25°C° 0 mm 0 m/s 742 mmHg 48%
    12:00 +28°C° 0 mm 1 m/s 742 mmHg 44%
    13:00 +28°C° 0 mm 2 m/s 742 mmHg 41%
    14:00 +28°C° 0 mm 2 m/s 742 mmHg 42%
    15:00 +28°C° 0 mm 2 m/s 742 mmHg 43%
    16:00 +28°C° 0 mm 2 m/s 742 mmHg 44%
    17:00 +27°C° 0 mm 2 m/s 742 mmHg 52%
    18:00 +26°C° 0 mm 1 m/s 742 mmHg 60%
    19:00 +24°C° 0 mm 1 m/s 741 mmHg 68%
    20:00 +23°C° 0 mm 1 m/s 742 mmHg 72%
    21:00 +21°C° 0 mm 1 m/s 742 mmHg 75%
    22:00 +20°C° 0 mm 1 m/s 742 mmHg 79%
    23:00 +19°C° 0 mm 1 m/s 742 mmHg 82%

    26 Julho, Sexta-feira

    Tempo Temperatura Precipitação Vento Pressão Humidade
    00:00 +18°C° 0 mm 1 m/s 742 mmHg 86%
    01:00 +16°C° 0 mm 1 m/s 742 mmHg 89%
    02:00 +15°C° 0 mm 0 m/s 742 mmHg 90%
    03:00 +15°C° 0 mm 0 m/s 741 mmHg 91%
    04:00 +14°C° 0 mm 0 m/s 741 mmHg 92%
    05:00 +16°C° 0 mm 0 m/s 741 mmHg 87%
    06:00 +17°C° 0 mm 0 m/s 741 mmHg 82%
    07:00 +19°C° 0 mm 0 m/s 741 mmHg 77%
    08:00 +22°C° 0 mm 1 m/s 741 mmHg 70%
    09:00 +24°C° 0 mm 1 m/s 741 mmHg 63%
    10:00 +26°C° 0 mm 2 m/s 741 mmHg 55%
    11:00 +27°C° 0 mm 2 m/s 741 mmHg 50%
    12:00 +28°C° 0 mm 3 m/s 740 mmHg 45%
    13:00 +29°C° 0 mm 3 m/s 740 mmHg 40%
    14:00 +29°C° 0 mm 3 m/s 740 mmHg 41%
    15:00 +28°C° 0 mm 3 m/s 740 mmHg 42%
    16:00 +28°C° 0 mm 3 m/s 739 mmHg 42%
    17:00 +27°C° 0 mm 3 m/s 739 mmHg 51%
    18:00 +25°C° 0 mm 2 m/s 739 mmHg 59%
    19:00 +24°C° 0 mm 2 m/s 738 mmHg 67%
    20:00 +22°C° 0 mm 1 m/s 738 mmHg 74%
    21:00 +20°C° 0 mm 1 m/s 738 mmHg 81%
    22:00 +18°C° 0 mm 1 m/s 738 mmHg 87%
    23:00 +18°C° 0 mm 1 m/s 738 mmHg 89%

    27 Julho, Sábado

    Tempo Temperatura Precipitação Vento Pressão Humidade
    00:00 +16°C° 0 mm 1 m/s 737 mmHg 91%
    01:00 +16°C° 0 mm 1 m/s 737 mmHg 93%
    02:00 +16°C° 0 mm 1 m/s 737 mmHg 93%
    03:00 +15°C° 0 mm 1 m/s 737 mmHg 94%
    04:00 +15°C° 0 mm 1 m/s 736 mmHg 95%
    05:00 +16°C° 0 mm 1 m/s 736 mmHg 88%
    06:00 +19°C° 0 mm 1 m/s 736 mmHg 81%
    07:00 +20°C° 0 mm 1 m/s 736 mmHg 75%
    08:00 +22°C° 0.1 mm 1 m/s 736 mmHg 70%
    09:00 +23°C° 0.1 mm 2 m/s 735 mmHg 66%
    10:00 +24°C° 0.1 mm 2 m/s 735 mmHg 61%
    11:00 +24°C° 0.3 mm 2 m/s 734 mmHg 61%
    12:00 +25°C° 0.3 mm 2 m/s 734 mmHg 61%
    13:00 +25°C° 0.3 mm 2 m/s 733 mmHg 61%
    14:00 +25°C° 0.4 mm 2 m/s 733 mmHg 62%
    15:00 +25°C° 0.4 mm 2 m/s 732 mmHg 62%
    16:00 +25°C° 0.4 mm 2 m/s 731 mmHg 62%
    17:00 +24°C° 0.3 mm 1 m/s 731 mmHg 69%
    18:00 +23°C° 0.3 mm 1 m/s 730 mmHg 77%
    19:00 +20°C° 0.3 mm 0 m/s 730 mmHg 84%
    20:00 +18°C° 0.4 mm 0 m/s 729 mmHg 86%
    21:00 +19°C° 0.4 mm 1 m/s 729 mmHg 89%
    22:00 +16°C° 0.4 mm 1 m/s 728 mmHg 91%
    23:00 +16°C° 0.3 mm 1 m/s 728 mmHg 93%

    28 Julho, Domingo

    Tempo Temperatura Precipitação Vento Pressão Humidade
    00:00 +15°C° 0.3 mm 1 m/s 727 mmHg 95%
    01:00 +15°C° 0.3 mm 1 m/s 727 mmHg 96%
    02:00 +14°C° 0 mm 1 m/s 726 mmHg 97%
    03:00 +13°C° 0 mm 0 m/s 726 mmHg 98%
    04:00 +13°C° 0 mm 0 m/s 725 mmHg 98%
    05:00 +13°C° 0 mm 0 m/s 725 mmHg 97%
    06:00 +15°C° 0 mm 1 m/s 725 mmHg 97%
    07:00 +16°C° 0 mm 1 m/s 725 mmHg 96%
    08:00 +18°C° 0.4 mm 1 m/s 724 mmHg 94%
    09:00 +18°C° 0.4 mm 1 m/s 724 mmHg 93%
    10:00 +19°C° 0.4 mm 1 m/s 724 mmHg 91%
    11:00 +20°C° 1.1 mm 1 m/s 724 mmHg 90%
    12:00 +21°C° 1.1 mm 1 m/s 723 mmHg 88%
    13:00 +21°C° 1.1 mm 1 m/s 723 mmHg 86%
    14:00 +21°C° 1.1 mm 1 m/s 723 mmHg 89%
    15:00 +20°C° 1.1 mm 1 m/s 723 mmHg 91%
    16:00 +20°C° 1.1 mm 1 m/s 723 mmHg 94%
    17:00 +19°C° 0.9 mm 1 m/s 722 mmHg 94%
    18:00 +18°C° 0.9 mm 1 m/s 722 mmHg 95%
    19:00 +18°C° 0.9 mm 1 m/s 722 mmHg 95%
    20:00 +16°C° 0.8 mm 1 m/s 722 mmHg 96%
    21:00 +16°C° 0.8 mm 2 m/s 722 mmHg 96%
    22:00 +15°C° 0.8 mm 2 m/s 721 mmHg 97%
    23:00 +15°C° 0.2 mm 2 m/s 721 mmHg 97%
    Mostrar mais